TimeCST,TemperatureF,Dew PointF,Humidity,Sea Level PressureIn,VisibilityMPH,Wind Direction,Wind SpeedMPH,Gust SpeedMPH,PrecipitationIn,Events,Conditions,WindDirDegrees,DateUTC
12:56 AM,50.0,48.0,93,30.06,10.0,Calm,Calm,-,N/A,,Clear,0,2012-12-06 06:56:00
1:56 AM,48.0,45.0,89,30.05,10.0,Calm,Calm,-,N/A,,Clear,0,2012-12-06 07:56:00
2:56 AM,48.0,46.0,93,30.05,10.0,North,3.5,-,N/A,,Clear,350,2012-12-06 08:56:00
3:56 AM,48.0,45.0,89,30.05,10.0,Calm,Calm,-,N/A,,Scattered Clouds,0,2012-12-06 09:56:00
4:56 AM,46.9,44.1,90,30.05,10.0,NNE,3.5,-,N/A,,Scattered Clouds,30,2012-12-06 10:56:00
5:56 AM,46.9,44.1,90,30.06,10.0,NE,3.5,-,N/A,,Clear,40,2012-12-06 11:56:00
6:56 AM,51.1,46.9,86,30.07,10.0,Calm,Calm,-,N/A,,Clear,0,2012-12-06 12:56:00
7:56 AM,57.0,51.1,81,30.08,10.0,East,3.5,-,N/A,,Clear,90,2012-12-06 13:56:00
8:56 AM,63.0,54.0,72,30.08,10.0,ESE,5.8,-,N/A,,Clear,120,2012-12-06 14:56:00
9:56 AM,68.0,55.0,63,30.08,10.0,ESE,6.9,-,N/A,,Clear,110,2012-12-06 15:56:00
10:56 AM,71.1,55.0,57,30.05,10.0,SE,8.1,-,N/A,,Clear,130,2012-12-06 16:56:00
11:56 AM,73.9,54.0,50,30.02,10.0,Variable,6.9,-,N/A,,Partly Cloudy,0,2012-12-06 17:56:00
12:56 PM,75.0,52.0,44,30.00,10.0,Variable,3.5,-,N/A,,Mostly Cloudy,0,2012-12-06 18:56:00
1:56 PM,75.0,51.1,43,29.98,10.0,East,8.1,-,N/A,,Clear,90,2012-12-06 19:56:00
2:56 PM,73.0,51.1,46,29.98,10.0,SSE,4.6,-,N/A,,Clear,150,2012-12-06 20:56:00
3:56 PM,73.0,48.9,42,29.99,10.0,SE,4.6,-,N/A,,Partly Cloudy,140,2012-12-06 21:56:00
4:56 PM,69.1,50.0,51,29.99,10.0,ESE,4.6,-,N/A,,Clear,120,2012-12-06 22:56:00
5:56 PM,64.9,51.1,61,30.00,10.0,ESE,4.6,-,N/A,,Clear,110,2012-12-06 23:56:00
6:56 PM,62.1,52.0,70,30.01,10.0,East,5.8,-,N/A,,Clear,90,2012-12-07 00:56:00
7:56 PM,61.0,54.0,78,30.02,10.0,East,5.8,-,N/A,,Clear,90,2012-12-07 01:56:00
8:56 PM,60.1,55.0,83,30.02,10.0,East,6.9,-,N/A,,Clear,80,2012-12-07 02:56:00
9:56 PM,59.0,55.0,87,30.02,10.0,East,6.9,-,N/A,,Clear,90,2012-12-07 03:56:00
10:56 PM,59.0,54.0,83,30.01,10.0,East,5.8,-,N/A,,Clear,100,2012-12-07 04:56:00
11:56 PM,57.9,54.0,87,30.01,10.0,ESE,5.8,-,N/A,,Clear,110,2012-12-07 05:56:00